Snowfall_Accumulation
1.0 0.7 1.1 0.0 0.0 0.0 0.0 0.1 0.0 0.0 0.0 0.0 0.0 0.0 0.0 0.0 0.0 0.0 0.0 0.0 0.0 0.0
0.7 1.0 1.0 0.0 0.0 0.0 0.1 0.1 0.1 0.1 0.1 0.0 0.0 0.0 0.0 0.0 0.0 0.0 0.0 0.0 0.0 0.0
1.0 1.2 0.9 1.0 0.0 0.1 0.2 0.1 0.1 0.1 0.1 0.0 0.0 0.0 0.0 0.0 0.0 0.0 0.0 0.0 0.0 0.0
0.7 0.7 0.7 1.4 0.4 0.2 0.1 0.0 0.3 0.0 0.1 0.0 0.0 0.0 0.0 0.0 0.1 0.0 0.0 0.0 0.0 0.0
4.9 3.3 0.9 0.8 1.6 0.2 0.0 0.0 0.0 0.6 0.0 0.0 0.0 0.0 0.0 0.1 0.1 0.0 0.2 0.2 0.1 0.0
10.6 10.1 7.1 2.3 0.0 1.6 0.4 0.0 0.6 1.0 1.2 0.1 0.0 0.0 0.1 0.0 0.0 0.1 0.0 0.0 0.0 0.0
11.1 11.3 11.6 8.7 6.5 5.7 3.7 1.0 0.7 0.4 1.0 0.5 0.4 0.2 0.2 0.0 0.0 0.2 0.0 0.0 0.0 0.0
10.4 10.7 9.4 10.7 8.8 8.1 8.2 7.3 5.3 3.8 1.9 0.6 0.1 0.2 0.6 0.4 1.3 1.4 0.9 0.4 0.9 0.7
11.1 9.6 10.1 10.9 11.4 9.5 8.4 8.3 7.1 8.5 3.6 3.9 0.7 0.0 0.3 0.5 2.9 3.7 3.3 2.3 2.5 1.8
13.1 12.0 11.8 11.7 10.8 9.3 9.7 8.0 7.0 8.1 8.4 8.3 3.2 0.3 0.6 0.8 3.1 6.3 5.8 4.3 3.6 2.2
11.1 11.2 10.4 11.2 10.9 10.4 9.5 10.3 9.5 8.4 7.3 9.3 7.2 2.2 1.7 4.0 8.5 8.5 6.3 4.0 3.1 1.9
9.7 9.8 10.0 10.8 11.5 12.8 13.1 14.7 14.5 13.7 13.5 12.1 10.3 1.9 3.0 7.9 12.0 9.9 5.3 2.5 1.6 1.0
9.1 10.8 13.9 11.9 11.8 14.9 14.4 14.9 14.1 15.2 13.1 6.8 9.7 2.8 2.8 6.2 12.3 15.5 8.5 3.0 1.4 0.4
7.3 10.1 11.6 13.0 12.5 14.1 15.8 15.0 13.5 12.6 9.8 9.7 8.6 7.7 3.9 4.4 10.8 13.6 14.0 7.5 3.8 2.1